{"data":{"norad_id":51640,"intl_designator":"2022-012U","name":"ONEWEB-0446","alt_names":[],"object_type":"PAYLOAD","status":"ACTIVE","operator":null,"country":"UK","launch_date":"2022-02-10","launch_site_code":"FRGUI","launch_vehicle":null,"mission":null,"orbit_class":"UNKNOWN","rcs_meters":null,"size_class":null,"mass_kg":null,"dimensions":null,"purposes":["comms"],"wikipedia_slug":null,"has_3d_model":false,"image_url":null,"decayed_at":null,"tle_current":{"epoch":"2026-09-20T02:00:16.069248Z","epoch_age_seconds":63104,"freshness":"FRESH","line1":"1 51640U 22012U   26263.08351932  .00000611  00000+0  17153-2 0  9999","line2":"2 51640  87.8896  17.3899 0001540 110.5995 249.5297 13.10371346221755","mean_motion":13.10371346,"eccentricity":0.000154,"inclination_deg":87.8896,"raan_deg":17.3899,"arg_perigee_deg":110.5995,"mean_anomaly_deg":249.5297,"bstar":0.0017153,"rev_number":22175,"period_min":109.89251286635,"perigee_km":1220.5524600036,"apogee_km":1222.8932168338,"semimajor_km":7599.8598384187,"source":"CELESTRAK","updated_at":"2026-09-20T09:00:44.711515Z"}}}